Terminal Aerodrome Forecast
Issued by NWS

Home | Current Version | Previous Version | Graphics & Text | Print | Product List | Glossary On
Versions: 1 2 3 4 5 6 7 8 9 10 11 12 13 14 15 16 17 18 19 20 21 22
000
FTUS43 KBIS 020638 AAA
TAFDIK
TAF AMD
KDIK 020638Z 0207/0306 VRB03KT 5SM BR SCT030 BKN080
     FM020800 VRB02KT 6SM BR BKN040
     FM021500 30008KT P6SM SCT050
     FM030000 36008KT P6SM SKC=

USA.gov is the U.S. government's official web portal to all federal, state and local government web resources and services.